Middleton, WI

5:51 AM CDT on March 27, 2017 (GMT -0500)
Middleton

Weather History for KC29 - February, 2013

Change the Weather History Date:

Wednesday, February 13, 2013

  Actual Average (KMSN) Record (KMSN)
Temperature  
Mean Temperature 28 °F -  
Max Temperature 38 °F 30 °F 51 °F (1921)
Min Temperature 19 °F 13 °F -24 °F (1905)
Degree Days  
Heating Degree Days 36    
Moisture  
Dew Point 25 °F    
Average Humidity 77    
Maximum Humidity 96    
Minimum Humidity 60    
Precipitation  
Precipitation 0.00 in - - ()
Sea Level Pressure  
Sea Level Pressure 29.73 in    
Wind  
Wind Speed 6 mph (SW)    
Max Wind Speed 14 mph    
Max Gust Speed 18 mph    
Visibility 9 miles    
Events      
Averages and records for this station are not official NWS values.
T = Trace of Precipitation, MM = Missing Value Source: NWS Daily Summary

Daily Weather History Graph

Daily Weather History Graph

Search for Another Location

Airport or City:

Trip Planner

Search our weather history database for the weather conditions in past years. The results will help you decide how hot, cold, wet, or windy it might be!

Date:

Astronomy

Feb. 13, 2013 Rise Set
Actual Time 6:58 AM CST 5:27 PM CST
Civil Twilight 6:28 AM CST 5:56 PM CST
Nautical Twilight 5:55 AM CST 6:29 PM CST
Astronomical Twilight 5:22 AM CST 7:02 PM CST
Moon 8:20 AM CST (2/13) 9:38 PM CST (2/13)
Length of Visible Light 11h 27m
Length of Day
10h 28m
Waxing Crescent, 14% of the Moon is Illuminated
Feb 13
Waxing Crescent
Feb 17
First Quarter
Feb 25
Full
Mar 4
Last Quarter
Mar 11
New

Hourly Weather History & Observations

Time (CST) Temp. Windchill Dew Point Humidity Pressure Visibility Wind Dir Wind Speed Gust Speed Precip Events Conditions
12:15 AM 28.4 °F 19.1 °F 22.6 °F 79% 29.83 in 10.0 mi SW 10.4 mph - N/A   Clear
12:35 AM 28.4 °F 19.1 °F 22.6 °F 79% 29.82 in 10.0 mi SW 10.4 mph - N/A   Clear
12:55 AM 28.8 °F 19.0 °F 22.6 °F 78% 29.82 in 10.0 mi SW 11.5 mph - N/A   Clear
1:15 AM 29.1 °F 18.4 °F 23.0 °F 78% 29.81 in 10.0 mi SW 13.8 mph 18.4 mph N/A   Clear
1:35 AM 29.3 °F 20.8 °F 23.0 °F 77% 29.81 in 10.0 mi SW 9.2 mph - N/A   Clear
1:55 AM 28.4 °F 24.6 °F 22.6 °F 79% 29.81 in 10.0 mi SW 3.5 mph - N/A   Clear
2:15 AM 28.2 °F 21.0 °F 22.8 °F 80% 29.80 in 10.0 mi SW 6.9 mph - N/A   Clear
2:35 AM 28.2 °F 22.0 °F 23.0 °F 81% 29.80 in 10.0 mi WSW 5.8 mph - N/A   Clear
2:55 AM 26.8 °F - 22.1 °F 83% 29.79 in 10.0 mi Calm Calm - N/A   Clear
3:15 AM 26.6 °F 21.2 °F 22.5 °F 84% 29.79 in 10.0 mi WSW 4.6 mph - N/A   Clear
3:35 AM 26.2 °F 20.7 °F 22.1 °F 84% 29.78 in 7.0 mi West 4.6 mph - N/A   Clear
3:55 AM 24.8 °F - 21.4 °F 87% 29.77 in 7.0 mi Calm Calm - N/A   Clear
4:15 AM 23.0 °F - 21.2 °F 93% 29.77 in 5.0 mi Calm Calm - N/A   Clear
4:35 AM 23.5 °F - 22.3 °F 95% 29.76 in 5.0 mi Calm Calm - N/A   Clear
4:55 AM 21.2 °F - 19.9 °F 95% 29.77 in 5.0 mi Calm Calm - N/A   Clear
5:15 AM 23.0 °F - 21.9 °F 96% 29.76 in 5.0 mi Calm Calm - N/A   Clear
5:35 AM 21.7 °F - 20.3 °F 94% 29.75 in 5.0 mi Calm Calm - N/A   Clear
5:55 AM 19.9 °F - 18.5 °F 94% 29.75 in 4.0 mi Calm Calm - N/A   Clear
6:15 AM 19.6 °F 14.5 °F 18.3 °F 95% 29.75 in 4.0 mi SSW 3.5 mph - N/A   Clear
6:35 AM 19.0 °F - 17.6 °F 94% 29.74 in 5.0 mi Calm Calm - N/A   Clear
6:55 AM 19.0 °F - 17.6 °F 94% 29.75 in 3.0 mi Calm Calm - N/A   Clear
7:15 AM 19.0 °F - 17.6 °F 94% 29.75 in 2.0 mi Calm Calm - N/A   Clear
7:35 AM 20.3 °F - 19.2 °F 96% 29.75 in 5.0 mi Calm Calm - N/A   Clear
7:55 AM 21.0 °F - 19.6 °F 94% 29.74 in 4.0 mi Calm Calm - N/A   Clear
8:15 AM 22.5 °F - 21.4 °F 96% 29.74 in 4.0 mi Calm Calm - N/A   Scattered Clouds
8:35 AM 23.9 °F - 22.8 °F 96% 29.73 in 3.0 mi Calm Calm - N/A   Scattered Clouds
8:55 AM 27.5 °F - 26.6 °F 96% 29.73 in 5.0 mi Calm Calm - N/A   Clear
9:15 AM 29.7 °F - 25.3 °F 84% 29.73 in 7.0 mi Calm Calm - N/A   Clear
9:35 AM 32.0 °F 28.7 °F 25.0 °F 75% 29.73 in 10.0 mi West 3.5 mph - N/A   Clear
9:55 AM 32.4 °F 27.9 °F 23.9 °F 71% 29.73 in 10.0 mi West 4.6 mph - N/A   Clear
10:15 AM 33.3 °F 27.1 °F 23.9 °F 69% 29.73 in 10.0 mi West 6.9 mph - N/A   Scattered Clouds
10:55 AM 35.1 °F 32.2 °F 22.8 °F 61% 29.72 in 10.0 mi SW 3.5 mph - N/A   Clear
11:15 AM 36.0 °F - 23.9 °F 62% 29.72 in 10.0 mi Calm Calm - N/A   Scattered Clouds
11:35 AM 36.5 °F 33.9 °F 24.4 °F 62% 29.72 in 10.0 mi South 3.5 mph - N/A   Mostly Cloudy
11:55 AM 37.4 °F 31.4 °F 24.6 °F 60% 29.71 in 10.0 mi South 8.1 mph - N/A   Mostly Cloudy
12:15 PM 36.7 °F 29.9 °F 25.5 °F 64% 29.71 in 10.0 mi SSW 9.2 mph - N/A   Mostly Cloudy
12:35 PM 36.5 °F 29.2 °F 25.9 °F 65% 29.70 in 10.0 mi South 10.4 mph - N/A   Mostly Cloudy
12:55 PM 36.1 °F 29.9 °F 25.7 °F 66% 29.70 in 10.0 mi SSW 8.1 mph - N/A   Mostly Cloudy
1:15 PM 36.7 °F 30.5 °F 25.5 °F 64% 29.70 in 10.0 mi SW 8.1 mph - N/A   Scattered Clouds
1:35 PM 37.0 °F 31.0 °F 25.2 °F 62% 29.70 in 10.0 mi SW 8.1 mph - N/A   Scattered Clouds
1:55 PM 37.9 °F 32.7 °F 25.7 °F 61% 29.69 in 10.0 mi SW 6.9 mph - N/A   Clear
2:15 PM 38.3 °F 31.4 °F 25.5 °F 60% 29.69 in 10.0 mi SW 10.4 mph - N/A   Clear
2:35 PM 38.3 °F 32.5 °F 25.9 °F 61% 29.69 in 10.0 mi WSW 8.1 mph - N/A   Clear
2:55 PM 38.3 °F 32.5 °F 25.9 °F 61% 29.70 in 10.0 mi WSW 8.1 mph - N/A   Clear
3:15 PM 38.3 °F 31.9 °F 25.7 °F 61% 29.70 in 10.0 mi SW 9.2 mph - N/A   Clear
3:35 PM 37.8 °F 31.8 °F 25.7 °F 62% 29.70 in 10.0 mi SW 8.1 mph - N/A   Clear
3:55 PM 37.6 °F 31.0 °F 25.7 °F 62% 29.70 in 10.0 mi SW 9.2 mph - N/A   Clear
4:15 PM 36.7 °F 30.5 °F 25.7 °F 64% 29.70 in 10.0 mi SW 8.1 mph - N/A   Clear
4:35 PM 36.1 °F 29.3 °F 26.1 °F 67% 29.70 in 10.0 mi SW 9.2 mph - N/A   Mostly Cloudy
4:55 PM 35.8 °F 28.3 °F 26.2 °F 68% 29.70 in 10.0 mi SW 10.4 mph - N/A   Overcast
5:15 PM 35.6 °F 29.2 °F 26.6 °F 70% 29.70 in 10.0 mi SW 8.1 mph - N/A   Overcast
5:35 PM 35.6 °F 31.7 °F 26.6 °F 70% 29.70 in 10.0 mi WSW 4.6 mph - N/A   Overcast
5:55 PM 35.2 °F 31.2 °F 26.8 °F 71% 29.70 in 10.0 mi WSW 4.6 mph - N/A   Overcast
6:15 PM 35.6 °F 31.7 °F 26.8 °F 70% 29.70 in 10.0 mi SW 4.6 mph - N/A   Overcast
6:35 PM 35.6 °F 31.7 °F 27.1 °F 71% 29.70 in 10.0 mi SW 4.6 mph - N/A   Overcast
6:55 PM 35.2 °F 31.2 °F 27.3 °F 73% 29.70 in 10.0 mi SW 4.6 mph - N/A   Overcast
7:15 PM 35.4 °F 32.6 °F 27.3 °F 72% 29.70 in 10.0 mi SW 3.5 mph - N/A   Overcast
7:35 PM 34.9 °F - 27.3 °F 74% 29.70 in 10.0 mi Calm Calm - N/A   Mostly Cloudy
7:55 PM 35.2 °F 30.3 °F 27.7 °F 74% 29.70 in 10.0 mi WSW 5.8 mph - N/A   Overcast
8:15 PM 35.6 °F 29.9 °F 28.4 °F 75% 29.70 in 10.0 mi SW 6.9 mph - N/A   Overcast
8:55 PM 35.6 °F 32.8 °F 28.4 °F 75% 29.69 in 10.0 mi SW 3.5 mph - N/A   Overcast
9:15 PM 35.4 °F 32.6 °F 28.4 °F 76% 29.69 in 10.0 mi SSW 3.5 mph - N/A   Overcast
9:35 PM 35.6 °F 31.7 °F 28.8 °F 76% 29.69 in 10.0 mi SW 4.6 mph - N/A   Overcast
9:55 PM 35.2 °F 31.2 °F 28.8 °F 77% 29.68 in 10.0 mi SSW 4.6 mph - N/A   Overcast
10:15 PM 34.9 °F 32.0 °F 28.9 °F 79% 29.67 in 10.0 mi South 3.5 mph - N/A   Mostly Cloudy
10:35 PM 34.9 °F 32.0 °F 29.1 °F 79% 29.66 in 10.0 mi South 3.5 mph - N/A   Mostly Cloudy
10:55 PM 35.2 °F 29.5 °F 29.7 °F 80% 29.66 in 10.0 mi South 6.9 mph - N/A   Overcast
11:15 PM 35.6 °F 29.9 °F 29.8 °F 80% 29.66 in 10.0 mi SSW 6.9 mph - N/A   Overcast
11:35 PM 35.8 °F 29.4 °F 30.2 °F 80% 29.65 in 10.0 mi South 8.1 mph - N/A   Overcast
11:55 PM 35.6 °F 31.7 °F 30.6 °F 82% 29.65 in 10.0 mi South 4.6 mph - N/A   Overcast